| time (UTC) | temp F | wind direction | speed MPH | gust MPH | rain 1hr in | rain 24hr in | rain mn in | humidity % | barometer mb |
| 20260509181504 | 76 | 95 | 1.0 | 3.0 | 0.00 | 0.00 | 0.00 | 61 | 1019.8 |
| 20260509180001 | 75 | 95 | 1.0 | 6.0 | 0.00 | 0.00 | 0.00 | 61 | 1020.0 |
| 20260509174557 | 74 | 95 | 0.0 | 4.0 | 0.00 | 0.00 | 0.00 | 62 | 1020.1 |
| 20260509173106 | 72 | 95 | 1.0 | 3.0 | 0.00 | 0.00 | 0.00 | 63 | 1020.0 |
| 20260509171554 | 71 | 95 | 0.0 | 4.0 | 0.00 | 0.00 | 0.00 | 64 | 1020.1 |
| 20260509170046 | 70 | 95 | 1.0 | 3.0 | 0.00 | 0.00 | 0.00 | 66 | 1020.2 |
| 20260509164543 | 68 | 95 | 0.0 | 4.0 | 0.00 | 0.00 | 0.00 | 68 | 1020.1 |
| 20260509163049 | 67 | 95 | 1.0 | 4.0 | 0.00 | 0.00 | 0.00 | 69 | 1020.3 |
| 20260509161532 | 66 | 95 | 1.0 | 3.0 | 0.00 | 0.00 | 0.00 | 71 | 1020.4 |
| 20260509160028 | 64 | 95 | 0.0 | 2.0 | 0.00 | 0.00 | 0.00 | 74 | 1020.4 |
| 20260509154523 | 63 | 95 | 0.0 | 2.0 | 0.00 | 0.00 | 0.00 | 75 | 1020.3 |
| 20260509153022 | 61 | 95 | 0.0 | 2.0 | 0.00 | 0.00 | 0.00 | 78 | 1020.1 |
| 20260509151514 | 60 | 95 | 0.0 | 4.0 | 0.00 | 0.00 | 0.00 | 80 | 1020.2 |
| 20260509150010 | 59 | 95 | 2.0 | 4.0 | 0.00 | 0.00 | 0.00 | 80 | 1020.3 |
| 20260509144506 | 58 | 95 | 0.0 | 3.0 | 0.00 | 0.00 | 0.00 | 82 | 1020.3 |
| 20260509143002 | 58 | 95 | 0.0 | 0.0 | 0.00 | 0.00 | 0.00 | 83 | 1020.2 |
| 20260509141600 | 57 | 95 | 0.0 | 0.0 | 0.00 | 0.00 | 0.00 | 84 | 1020.0 |
| 20260509140117 | 56 | 95 | 0.0 | 1.0 | 0.00 | 0.00 | 0.00 | 85 | 1020.1 |
| 20260509134559 | 56 | 95 | 0.0 | 2.0 | 0.00 | 0.00 | 0.00 | 86 | 1020.0 |
| 20260509133104 | 56 | 95 | 0.0 | 4.0 | 0.00 | 0.00 | 0.00 | 86 | 1020.0 |
| 20260509131555 | 56 | 95 | 0.0 | 0.0 | 0.00 | 0.00 | 0.00 | 86 | 1019.8 |
| 20260509130055 | 56 | 95 | 0.0 | 0.0 | 0.00 | 0.00 | 0.00 | 85 | 1019.7 |
| 20260509124605 | 56 | 95 | 0.0 | 3.0 | 0.00 | 0.00 | 0.00 | 85 | 1019.7 |
| 20260509123051 | 56 | 95 | 0.0 | 1.0 | 0.00 | 0.00 | 0.00 | 84 | 1019.6 |
| 20260509121549 | 56 | 95 | 0.0 | 2.0 | 0.00 | 0.00 | 0.00 | 84 | 1019.5 |
| 20260509120048 | 57 | 95 | 0.0 | 3.0 | 0.00 | 0.00 | 0.00 | 83 | 1019.7 |
| 20260509114555 | 57 | 95 | 0.0 | 3.0 | 0.00 | 0.00 | 0.00 | 83 | 1019.7 |
| 20260509113046 | 57 | 95 | 0.0 | 3.0 | 0.00 | 0.00 | 0.00 | 82 | 1019.6 |
| 20260509111544 | 58 | 95 | 0.0 | 3.0 | 0.00 | 0.00 | 0.00 | 82 | 1019.6 |
| 20260509110043 | 58 | 95 | 0.0 | 2.0 | 0.00 | 0.00 | 0.00 | 81 | 1019.8 |
| 20260509104541 | 58 | 95 | 0.0 | 1.0 | 0.00 | 0.00 | 0.00 | 81 | 1019.5 |
| 20260509103040 | 59 | 95 | 0.0 | 1.0 | 0.00 | 0.00 | 0.00 | 83 | 1019.5 |
| 20260509101539 | 59 | 95 | 0.0 | 2.0 | 0.00 | 0.00 | 0.00 | 81 | 1019.6 |
| 20260509100039 | 59 | 95 | 0.0 | 0.0 | 0.00 | 0.00 | 0.00 | 80 | 1019.6 |
| 20260509094538 | 59 | 95 | 0.0 | 0.0 | 0.00 | 0.00 | 0.00 | 80 | 1019.7 |
| 20260509093035 | 59 | 95 | 0.0 | 0.0 | 0.00 | 0.00 | 0.00 | 80 | 1019.9 |
| 20260509091537 | 59 | 95 | 0.0 | 0.0 | 0.00 | 0.00 | 0.00 | 80 | 1019.9 |
| 20260509090034 | 59 | 95 | 0.0 | 3.0 | 0.00 | 0.00 | 0.00 | 80 | 1019.9 |
| 20260509084537 | 59 | 95 | 0.0 | 2.0 | 0.00 | 0.00 | 0.00 | 80 | 1020.0 |
| 20260509083031 | 59 | 95 | 0.0 | 3.0 | 0.00 | 0.00 | 0.00 | 79 | 1020.0 |
| 20260509081532 | 60 | 95 | 0.0 | 1.0 | 0.00 | 0.00 | 0.00 | 79 | 1020.0 |
| 20260509080040 | 60 | 95 | 0.0 | 2.0 | 0.00 | 0.00 | 0.00 | 78 | 1020.0 |
| 20260509074528 | 60 | 95 | 0.0 | 2.0 | 0.00 | 0.00 | 0.00 | 78 | 1020.1 |
| 20260509073041 | 61 | 95 | 0.0 | 3.0 | 0.00 | 0.00 | 0.00 | 77 | 1020.0 |
| 20260509071523 | 61 | 95 | 0.0 | 1.0 | 0.00 | 0.00 | 0.00 | 77 | 1020.0 |
| 20260509070021 | 62 | 95 | 0.0 | 2.0 | 0.00 | 0.00 | 0.00 | 76 | 1019.9 |
| 20260509064519 | 62 | 95 | 0.0 | 2.0 | 0.00 | 0.00 | 0.00 | 76 | 1019.9 |
| 20260509063025 | 62 | 95 | 0.0 | 3.0 | 0.00 | 0.00 | 0.00 | 76 | 1019.8 |
| 20260509061522 | 63 | 95 | 0.0 | 2.0 | 0.00 | 0.00 | 0.00 | 75 | 1019.8 |
| 20260509060018 | 63 | 95 | 0.0 | 3.0 | 0.00 | 0.00 | 0.00 | 74 | 1019.8 |
| 20260509054527 | 64 | 95 | 0.0 | 4.0 | 0.00 | 0.00 | 0.00 | 74 | 1019.8 |
| 20260509053017 | 64 | 95 | 0.0 | 2.0 | 0.00 | 0.00 | 0.00 | 73 | 1019.8 |
| 20260509051517 | 65 | 95 | 0.0 | 4.0 | 0.00 | 0.00 | 0.00 | 72 | 1019.7 |
| 20260509050022 | 66 | 95 | 0.0 | 6.0 | 0.00 | 0.00 | 0.00 | 71 | 1019.7 |
| 20260509044516 | 66 | 95 | 0.0 | 1.0 | 0.00 | 0.00 | 0.00 | 71 | 1019.7 |
| 20260509043033 | 67 | 95 | 0.0 | 7.0 | 0.00 | 0.00 | 0.00 | 70 | 1019.6 |
| 20260509041515 | 68 | 95 | 0.0 | 3.0 | 0.00 | 0.00 | 0.00 | 69 | 1019.5 |
| 20260509040014 | 69 | 95 | 0.0 | 6.0 | 0.00 | 0.00 | 0.00 | 68 | 1019.4 |
| 20260509034514 | 70 | 95 | 0.0 | 6.0 | 0.00 | 0.00 | 0.00 | 67 | 1019.2 |
| 20260509033014 | 71 | 95 | 1.0 | 8.0 | 0.00 | 0.00 | 0.00 | 65 | 1019.2 |
| 20260509031517 | 72 | 95 | 3.0 | 8.0 | 0.00 | 0.00 | 0.00 | 64 | 1019.3 |
| 20260509030013 | 74 | 95 | 1.0 | 7.0 | 0.00 | 0.00 | 0.00 | 64 | 1019.1 |
| 20260509024512 | 75 | 95 | 1.0 | 8.0 | 0.00 | 0.00 | 0.00 | 63 | 1019.0 |
| 20260509023020 | 76 | 95 | 1.0 | 7.0 | 0.00 | 0.00 | 0.00 | 62 | 1018.9 |
| 20260509021518 | 77 | 95 | 1.0 | 6.0 | 0.00 | 0.00 | 0.00 | 60 | 1018.8 |
| 20260509020010 | 78 | 95 | 1.0 | 7.0 | 0.00 | 0.00 | 0.00 | 59 | 1018.9 |
| 20260509014509 | 78 | 95 | 1.0 | 8.0 | 0.00 | 0.00 | 0.00 | 56 | 1018.9 |
| 20260509013022 | 79 | 95 | 1.0 | 7.0 | 0.00 | 0.00 | 0.00 | 55 | 1019.0 |
| 20260509011508 | 81 | 94 | 3.0 | 9.0 | 0.00 | 0.00 | 0.00 | 54 | 1019.0 |
| 20260509010006 | 82 | 93 | 0.0 | 7.0 | 0.00 | 0.00 | 0.00 | 53 | 1019.1 |
| 20260509004516 | 83 | 90 | 1.0 | 8.0 | 0.00 | 0.00 | 0.00 | 52 | 1019.2 |
| 20260509003004 | 84 | 89 | 0.0 | 8.0 | 0.00 | 0.00 | 0.00 | 49 | 1019.3 |
| 20260509001503 | 86 | 88 | 1.0 | 2.0 | 0.00 | 0.00 | 0.00 | 46 | 1019.4 |
| 20260509000002 | 86 | 85 | 0.0 | 3.0 | 0.00 | 0.00 | 0.00 | 45 | 1019.4 |
| 20260508234600 | 86 | 85 | 1.0 | 4.0 | 0.00 | 0.00 | 0.00 | 44 | 1019.5 |
| 20260508233130 | 86 | 85 | 0.0 | 3.0 | 0.00 | 0.00 | 0.00 | 44 | 1019.7 |
| 20260508231556 | 85 | 85 | 0.0 | 4.0 | 0.00 | 0.00 | 0.00 | 45 | 1019.8 |
| 20260508230059 | 85 | 84 | 1.0 | 6.0 | 0.00 | 0.00 | 0.00 | 44 | 1020.0 |
| 20260508224550 | 85 | 84 | 1.0 | 4.0 | 0.00 | 0.00 | 0.00 | 44 | 1020.3 |
| 20260508223048 | 83 | 84 | 2.0 | 6.0 | 0.00 | 0.00 | 0.00 | 47 | 1020.5 |
| 20260508221544 | 83 | 84 | 1.0 | 7.0 | 0.00 | 0.00 | 0.00 | 49 | 1020.8 |
| 20260508220046 | 82 | 84 | 1.0 | 4.0 | 0.00 | 0.00 | 0.00 | 49 | 1021.0 |
| 20260508214546 | 82 | 87 | 1.0 | 4.0 | 0.00 | 0.00 | 0.00 | 48 | 1021.3 |
| 20260508213036 | 81 | 87 | 2.0 | 7.0 | 0.00 | 0.00 | 0.00 | 48 | 1021.5 |
| 20260508211536 | 81 | 87 | 1.0 | 6.0 | 0.00 | 0.00 | 0.00 | 48 | 1021.7 |
| 20260508210036 | 80 | 87 | 0.0 | 3.0 | 0.00 | 0.00 | 0.00 | 51 | 1021.9 |
| 20260508204529 | 79 | 87 | 1.0 | 6.0 | 0.00 | 0.00 | 0.00 | 52 | 1022.0 |
| 20260508203028 | 79 | 87 | 1.0 | 4.0 | 0.00 | 0.00 | 0.00 | 53 | 1022.2 |
| 20260508201527 | 79 | 87 | 0.0 | 4.0 | 0.00 | 0.00 | 0.00 | 53 | 1022.3 |
| 20260508200037 | 77 | 87 | 0.0 | 3.0 | 0.00 | 0.00 | 0.00 | 56 | 1022.4 |
| 20260508194521 | 77 | 87 | 0.0 | 3.0 | 0.00 | 0.00 | 0.00 | 56 | 1022.6 |
| 20260508193019 | 76 | 87 | 0.0 | 3.0 | 0.00 | 0.00 | 0.00 | 56 | 1022.8 |
| 20260508191517 | 74 | 87 | 1.0 | 7.0 | 0.00 | 0.00 | 0.00 | 59 | 1022.9 |
| 20260508190012 | 73 | 87 | 0.0 | 6.0 | 0.00 | 0.00 | 0.00 | 60 | 1023.1 |
| 20260508184506 | 71 | 87 | 0.0 | 6.0 | 0.00 | 0.00 | 0.00 | 62 | 1023.3 |
| 20260508183005 | 70 | 87 | 1.0 | 6.0 | 0.00 | 0.00 | 0.00 | 63 | 1023.3 |